Ottawa International, Ontario

5:43 PM EST on January 23, 2018 (GMT -0500)
Ottawa International Airport

Weather History for CYOW - December, 2012

Change the Weather History Date:

Monday, December 10, 2012

  Actual Average Record
Temperature  
Mean Temperature 28 °F -  
Max Temperature 34 °F 24 °F 52 °F (2015)
Min Temperature 23 °F 9 °F 1 °F (2010)
Degree Days  
Heating Degree Days 36    
Moisture  
Dew Point 28 °F    
Average Humidity 94    
Maximum Humidity 100    
Minimum Humidity 83    
Precipitation  
Precipitation 0.24 in 0.10 in - ()
Sea Level Pressure  
Sea Level Pressure 29.63 in    
Wind  
Wind Speed 12 mph ()    
Max Wind Speed 21 mph    
Max Gust Speed 31 mph    
Visibility 6.0 miles    
Events Fog , Rain , Snow    
Averages and records for this station are not official NWS values.
T = Trace of Precipitation, MM = Missing Value Source: Averaged Metar Reports

Daily Weather History Graph

Daily Weather History Graph

Search for Another Location

Airport or City:

Trip Planner

Search our weather history database for the weather conditions in past years. The results will help you decide how hot, cold, wet, or windy it might be!

Date:

Astronomy

Dec. 10, 2012 Rise Set
Actual Time 7:31 AM EST 4:19 PM EST
Civil Twilight 6:57 AM EST 4:53 PM EST
Nautical Twilight 6:20 AM EST 5:31 PM EST
Astronomical Twilight 5:44 AM EST 6:06 PM EST
Moon 4:06 AM EST (12/10) 2:11 PM EST (12/10)
Length of Visible Light 9h 56m
Length of Day
8h 48m
Waning Crescent, 10% of the Moon is Illuminated
Dec 10
Waning Crescent
Dec 13
New
Dec 20
First Quarter
Dec 28
Full
Jan 4
Last Quarter

Hourly Weather History & Observations

Time (EST) Temp. Windchill Dew Point Humidity Pressure Visibility Wind Dir Wind Speed Gust Speed Precip Events Conditions
12:00 AM 24.8 °F 12.4 °F 23.0 °F 93% 29.99 in 1.2 mi ENE 15.0 mph 21.9 mph N/A Snow Light Snow
12:46 AM 23.0 °F 8.3 °F 21.2 °F 93% 29.94 in 2.5 mi ENE 19.6 mph - N/A Snow Light Snow
1:00 AM 24 °F - 21 °F 83% 29.93 in 3 mi ENE 17.3 mph - - Snow Light Snow
1:00 AM 23.0 °F 8.7 °F 21.2 °F 93% 29.93 in 3.0 mi ENE 18.4 mph - N/A Snow Light Snow
1:32 AM 23.0 °F 9.2 °F 21.2 °F 93% 29.90 in 3.0 mi ENE 17.3 mph 25.3 mph N/A Snow Light Snow
1:47 AM 23.0 °F 8.7 °F 21.2 °F 93% 29.89 in 3.0 mi ENE 18.4 mph 25.3 mph N/A Rain Light Freezing Rain
2:00 AM 23.0 °F 8.3 °F 21.2 °F 93% 29.88 in 3.0 mi East 19.6 mph 31.1 mph N/A Rain Light Freezing Rain
3:00 AM 23.0 °F 8.3 °F 21.2 °F 93% 29.85 in 3.0 mi ENE 19.6 mph 26.5 mph N/A Rain Light Freezing Rain
3:33 AM 23.0 °F 9.2 °F 21.2 °F 93% 29.81 in 3.0 mi East 17.3 mph 24.2 mph N/A   Light Freezing Drizzle
4:00 AM 23.0 °F 8.7 °F 21.2 °F 93% 29.78 in 5.0 mi East 18.4 mph 27.6 mph N/A   Light Freezing Drizzle
5:00 AM 23.0 °F 9.6 °F 21.2 °F 93% 29.71 in 6.0 mi East 16.1 mph 25.3 mph N/A   Light Freezing Drizzle
5:05 AM 23.0 °F 9.2 °F 23.0 °F 100% 29.70 in 4.0 mi East 17.3 mph - N/A Rain Light Freezing Rain
5:25 AM 24.8 °F 11.5 °F 23.0 °F 93% 29.69 in 4.0 mi East 17.3 mph - N/A Rain Light Freezing Rain
6:00 AM 26.6 °F 15.2 °F 24.8 °F 93% 29.68 in 8.0 mi East 13.8 mph - N/A Rain Light Freezing Rain
7:00 AM 28 °F - 27 °F 94% 29.62 in 7 mi East 11.5 mph - -   Light Freezing Rain
7:00 AM 28.4 °F 19.1 °F 26.6 °F 93% 29.62 in 8.0 mi East 10.4 mph - N/A Rain Light Freezing Rain
8:00 AM 30.2 °F 21.3 °F 28.4 °F 93% 29.58 in 8.0 mi ENE 10.4 mph - N/A Rain Light Freezing Rain
9:00 AM 30.2 °F 22.6 °F 30.2 °F 100% 29.55 in 8.0 mi ENE 8.1 mph - N/A Rain Light Freezing Rain
10:00 AM 32.0 °F 24.8 °F 30.2 °F 93% 29.52 in 7.0 mi ENE 8.1 mph - N/A Rain Light Freezing Rain
10:18 AM 32.0 °F 25.6 °F 30.2 °F 93% 29.52 in 3.0 mi ENE 6.9 mph - N/A Rain Light Freezing Rain
10:26 AM 32.0 °F 26.4 °F 30.2 °F 93% 29.52 in 1.0 mi NE 5.8 mph - N/A Rain Light Freezing Rain
11:00 AM 32.0 °F 25.6 °F 32.0 °F 100% 29.50 in 1.0 mi ENE 6.9 mph - N/A Rain Light Freezing Rain
11:11 AM 32.0 °F 25.6 °F 32.0 °F 100% 29.49 in 1.0 mi East 6.9 mph - N/A Rain Light Rain
11:30 AM 32.0 °F - 32.0 °F 100% 29.49 in 3.0 mi Calm Calm - N/A Rain Light Rain
12:00 PM 32.0 °F 26.4 °F 32.0 °F 100% 29.47 in 6.0 mi East 5.8 mph - N/A Rain Light Rain
12:28 PM 32.0 °F - 32.0 °F 100% 29.47 in 3.0 mi Variable 2.3 mph - N/A Rain Light Rain
12:50 PM 32.0 °F - 32.0 °F 100% 29.47 in 1.2 mi North 2.3 mph - N/A Rain Light Rain
1:00 PM 32 °F - 32 °F 99% 29.46 in 1 mi Calm Calm - - Rain Light Rain
1:00 PM 32.0 °F - 32.0 °F 100% 29.46 in 1.0 mi Variable 2.3 mph - N/A Rain Light Rain
1:42 PM 32.0 °F 28.7 °F 32.0 °F 100% 29.46 in 0.8 mi SSW 3.5 mph - N/A Rain Light Rain
2:00 PM 32.0 °F 26.4 °F 32.0 °F 100% 29.47 in 0.4 mi SSW 5.8 mph - N/A Fog Fog
2:42 PM 33.8 °F 25.8 °F 33.8 °F 100% 29.48 in 5.0 mi WSW 10.4 mph - N/A   Overcast
3:00 PM 33.8 °F 25.8 °F 33.8 °F 100% 29.50 in 8.0 mi WSW 10.4 mph - N/A   Overcast
3:22 PM 33.8 °F 26.4 °F 33.8 °F 100% 29.52 in 10.0 mi SW 9.2 mph - N/A   Overcast
4:00 PM 33.8 °F 27.7 °F 33.8 °F 100% 29.51 in 10.0 mi West 6.9 mph - N/A   Overcast
4:48 PM 33.8 °F 26.4 °F 32.0 °F 93% 29.54 in 10.0 mi West 9.2 mph - N/A   Overcast
5:00 PM 33.8 °F 26.4 °F 32.0 °F 93% 29.55 in 12.0 mi WNW 9.2 mph - N/A   Overcast
6:00 PM 32.0 °F 25.6 °F 30.2 °F 93% 29.56 in 12.0 mi WNW 6.9 mph - N/A   Overcast
7:00 PM 32 °F - 30 °F 89% 29.60 in 12 mi West 6.9 mph - -   Partly Cloudy
7:00 PM 32.0 °F 25.6 °F 30.2 °F 93% 29.60 in 12.0 mi West 6.9 mph - N/A   Overcast
8:00 PM 32.0 °F 24.2 °F 28.4 °F 87% 29.61 in 12.0 mi WNW 9.2 mph - N/A   Overcast
8:41 PM 30.2 °F 18.1 °F 26.6 °F 86% 29.62 in 12.0 mi NW 18.4 mph - N/A   Overcast
9:00 PM 30.2 °F 18.1 °F 26.6 °F 86% 29.65 in 12.0 mi WNW 18.4 mph 26.5 mph N/A   Overcast
10:00 PM 26.6 °F 13.4 °F 23.0 °F 86% 29.67 in 12.0 mi WNW 18.4 mph 26.5 mph N/A   Mostly Cloudy
10:46 PM 24.8 °F 10.3 °F 21.2 °F 86% 29.69 in 12.0 mi WNW 20.7 mph 26.5 mph N/A   Overcast
11:00 PM 24.8 °F 10.7 °F 21.2 °F 86% 29.70 in 12.0 mi WNW 19.6 mph 25.3 mph N/A   Overcast